Weather History for KTQH - January, 2014

Change the Weather History Date:

Thursday, January 16, 2014

  Actual Average (KMKO) Record (KMKO)
Temperature  
Mean Temperature 40 °F -  
Max Temperature 53 °F 46 °F 70 °F (2012)
Min Temperature 28 °F 27 °F 8 °F (1997)
Degree Days  
Heating Degree Days 24    
Moisture  
Dew Point 24 °F    
Average Humidity 50    
Maximum Humidity 87    
Minimum Humidity 28    
Precipitation  
Precipitation 0.00 in - - ()
Sea Level Pressure  
Sea Level Pressure 29.99 in    
Wind  
Wind Speed 8 mph (WNW)    
Max Wind Speed 24 mph    
Max Gust Speed 34 mph    
Visibility 10 miles    
Events      
Averages and records for this station are not official NWS values.
T = Trace of Precipitation, MM = Missing Value Source: NWS Daily Summary

Daily Weather History Graph

Daily Weather History Graph

Search for Another Location

Airport or City:

Trip Planner

Search our weather history database for the weather conditions in past years. The results will help you decide how hot, cold, wet, or windy it might be!

Date:

Astronomy

Jan. 16, 2014 Rise Set
Actual Time 7:29 AM CST 5:30 PM CST
Civil Twilight 7:01 AM CST 5:58 PM CST
Nautical Twilight 6:30 AM CST 6:29 PM CST
Astronomical Twilight 5:59 AM CST 7:00 PM CST
Moon 6:19 PM CST (1/16) 7:26 AM CST (1/16)
Length of Visible Light 10h 56m
Length of Day
10h 01m
Full, 100% of the Moon is Illuminated
Jan 16
Full
Jan 23
Last Quarter
Jan 30
New
Feb 6
First Quarter
Feb 14
Full

Hourly Weather History & Observations

Time (CST) Temp. Windchill Dew Point Humidity Pressure Visibility Wind Dir Wind Speed Gust Speed Precip Events Conditions
12:15 AM 41.0 °F 36.4 °F 23.0 °F 49% 29.97 in 10.0 mi South 6.9 mph - N/A   Clear
12:35 AM 41.0 °F 35.2 °F 24.8 °F 53% 29.96 in 10.0 mi South 9.2 mph - N/A   Clear
12:55 AM 41.0 °F 36.4 °F 24.8 °F 53% 29.96 in 10.0 mi SSW 6.9 mph - N/A   Clear
1:15 AM 39.2 °F 35.9 °F 24.8 °F 56% 29.96 in 10.0 mi South 4.6 mph - N/A   Clear
1:35 AM 39.2 °F 34.2 °F 24.8 °F 56% 29.96 in 10.0 mi South 6.9 mph - N/A   Clear
1:55 AM 37.4 °F 32.8 °F 24.8 °F 60% 29.95 in 10.0 mi South 5.8 mph - N/A   Clear
2:15 AM 37.4 °F 34.9 °F 24.8 °F 60% 29.95 in 10.0 mi South 3.5 mph - N/A   Clear
2:35 AM 37.4 °F 33.8 °F 24.8 °F 60% 29.94 in 10.0 mi South 4.6 mph - N/A   Scattered Clouds
2:55 AM 37.4 °F 33.8 °F 26.6 °F 65% 29.94 in 10.0 mi South 4.6 mph - N/A   Clear
3:15 AM 37.4 °F - 26.6 °F 65% 29.94 in 10.0 mi Calm Calm - N/A   Clear
3:35 AM 37.4 °F 32.8 °F 26.6 °F 65% 29.93 in 10.0 mi South 5.8 mph - N/A   Clear
3:55 AM 37.4 °F - 26.6 °F 65% 29.92 in 10.0 mi Calm Calm - N/A   Clear
4:15 AM 37.4 °F 31.4 °F 24.8 °F 60% 29.92 in 10.0 mi SSW 8.1 mph - N/A   Clear
4:35 AM 37.4 °F - 24.8 °F 60% 29.93 in 10.0 mi Calm Calm - N/A   Clear
4:55 AM 37.4 °F - 24.8 °F 60% 29.94 in 10.0 mi Calm Calm - N/A   Clear
5:15 AM 37.4 °F 33.8 °F 26.6 °F 65% 29.93 in 10.0 mi SW 4.6 mph - N/A   Clear
5:35 AM 37.4 °F 34.9 °F 26.6 °F 65% 29.92 in 10.0 mi SW 3.5 mph - N/A   Clear
5:55 AM 37.4 °F - 26.6 °F 65% 29.92 in 10.0 mi Calm Calm - N/A   Clear
6:15 AM 35.6 °F - 26.6 °F 70% 29.92 in 10.0 mi Calm Calm - N/A   Clear
6:35 AM 32.0 °F - 26.6 °F 80% 29.92 in 10.0 mi Calm Calm - N/A   Clear
6:55 AM 33.8 °F - 26.6 °F 75% 29.94 in 10.0 mi Calm Calm - N/A   Clear
7:15 AM 30.2 °F - 24.8 °F 80% 29.93 in 10.0 mi Calm Calm - N/A   Clear
7:35 AM 28.4 °F - 23.0 °F 80% 29.95 in 10.0 mi Calm Calm - N/A   Clear
7:55 AM 28.4 °F - 24.8 °F 86% 29.96 in 10.0 mi Calm Calm - N/A   Clear
8:15 AM 30.2 °F - 26.6 °F 86% 29.97 in 10.0 mi Calm Calm - N/A   Clear
8:35 AM 32.0 °F - 28.4 °F 87% 29.97 in 10.0 mi Calm Calm - N/A   Clear
8:55 AM 37.4 °F 34.9 °F 28.4 °F 70% 29.99 in 10.0 mi West 3.5 mph - N/A   Clear
9:15 AM 41.0 °F 35.8 °F 28.4 °F 61% 30.00 in 10.0 mi WNW 8.1 mph - N/A   Clear
9:35 AM 42.8 °F 36.2 °F 28.4 °F 57% 30.01 in 10.0 mi WNW 12.7 mph 16.1 mph N/A   Clear
9:55 AM 42.8 °F 37.0 °F 30.2 °F 61% 30.02 in 10.0 mi WNW 10.4 mph 17.3 mph N/A   Clear
10:15 AM 44.6 °F 38.8 °F 30.2 °F 57% 30.03 in 10.0 mi NW 11.5 mph - N/A   Clear
10:35 AM 46.4 °F 42.4 °F 30.2 °F 53% 30.02 in 10.0 mi NW 8.1 mph - N/A   Clear
10:55 AM 50.0 °F - 32.0 °F 50% 30.02 in 10.0 mi NW 11.5 mph - N/A   Clear
11:15 AM 51.8 °F - 30.2 °F 44% 30.02 in 10.0 mi NW 12.7 mph 23.0 mph N/A   Clear
11:35 AM 51.8 °F - 28.4 °F 41% 30.01 in 10.0 mi NW 17.3 mph 25.3 mph N/A   Clear
11:55 AM 51.8 °F - 28.4 °F 41% 30.00 in 10.0 mi NW 16.1 mph 19.6 mph N/A   Clear
12:15 PM 51.8 °F - 28.4 °F 41% 29.99 in 10.0 mi NNW 18.4 mph 28.8 mph N/A   Clear
12:35 PM 53.6 °F - 28.4 °F 38% 29.99 in 10.0 mi WNW 20.7 mph 27.6 mph N/A   Clear
12:55 PM 53.6 °F - 28.4 °F 38% 29.98 in 10.0 mi NNW 19.6 mph 27.6 mph N/A   Clear
1:15 PM 53.6 °F - 26.6 °F 35% 29.98 in 10.0 mi NW 21.9 mph 34.5 mph N/A   Clear
1:35 PM 53.6 °F - 24.8 °F 33% 29.97 in 10.0 mi NW 20.7 mph 29.9 mph N/A   Clear
1:55 PM 53.6 °F - 23.0 °F 30% 29.98 in 10.0 mi West 24.2 mph 33.4 mph N/A   Clear
2:55 PM 51.8 °F - 19.4 °F 28% 29.98 in 10.0 mi NW 21.9 mph 33.4 mph N/A   Clear
3:15 PM 51.8 °F - 21.2 °F 30% 29.98 in 10.0 mi NW 15.0 mph 26.5 mph N/A   Clear
3:35 PM 51.8 °F - 19.4 °F 28% 29.99 in 10.0 mi WNW 12.7 mph 28.8 mph N/A   Clear
3:55 PM 51.8 °F - 19.4 °F 28% 29.99 in 10.0 mi NW 17.3 mph 25.3 mph N/A   Clear
4:15 PM 51.8 °F - 19.4 °F 28% 29.99 in 10.0 mi NW 16.1 mph - N/A   Clear
4:35 PM 50.0 °F - 19.4 °F 30% 29.99 in 10.0 mi NW 15.0 mph 20.7 mph N/A   Clear
4:55 PM 50.0 °F - 19.4 °F 30% 29.99 in 10.0 mi WNW 10.4 mph - N/A   Clear
5:15 PM 48.2 °F - 19.4 °F 32% 29.99 in 10.0 mi WNW 9.2 mph - N/A   Clear
5:35 PM 46.4 °F 41.5 °F 21.2 °F 37% 29.99 in 10.0 mi NNW 10.4 mph - N/A   Scattered Clouds
5:55 PM 46.4 °F 44.3 °F 24.8 °F 43% 29.99 in 10.0 mi NW 4.6 mph - N/A   Scattered Clouds
6:15 PM 44.6 °F 40.2 °F 19.4 °F 37% 30.00 in 10.0 mi WNW 8.1 mph - N/A   Scattered Clouds
6:35 PM 44.6 °F 41.4 °F 19.4 °F 37% 30.00 in 10.0 mi WNW 5.8 mph - N/A   Scattered Clouds
6:55 PM 42.8 °F 41.1 °F 19.4 °F 39% 30.00 in 10.0 mi NW 3.5 mph - N/A   Clear
7:15 PM 41.0 °F 39.0 °F 19.4 °F 42% 30.01 in 10.0 mi WNW 3.5 mph - N/A   Clear
7:35 PM 42.8 °F 40.1 °F 19.4 °F 39% 30.01 in 10.0 mi West 4.6 mph - N/A   Clear
7:55 PM 41.0 °F 39.0 °F 19.4 °F 42% 30.02 in 10.0 mi WNW 3.5 mph - N/A   Clear
8:15 PM 39.2 °F 35.0 °F 19.4 °F 45% 30.03 in 10.0 mi WNW 5.8 mph - N/A   Clear
8:35 PM 41.0 °F 35.2 °F 19.4 °F 42% 30.04 in 10.0 mi NW 9.2 mph - N/A   Clear
8:55 PM 42.8 °F 35.8 °F 17.6 °F 36% 30.06 in 10.0 mi NNW 13.8 mph 21.9 mph N/A   Clear
9:15 PM 42.8 °F 35.8 °F 17.6 °F 36% 30.07 in 10.0 mi NW 13.8 mph 23.0 mph N/A   Clear
9:35 PM 41.0 °F 34.7 °F 17.6 °F 39% 30.08 in 10.0 mi NNW 10.4 mph - N/A   Clear
9:55 PM 41.0 °F 33.1 °F 19.4 °F 42% 30.09 in 10.0 mi NNW 15.0 mph - N/A   Clear
10:15 PM 41.0 °F 33.5 °F 17.6 °F 39% 30.10 in 10.0 mi NNW 13.8 mph 20.7 mph N/A   Clear
10:35 PM 39.2 °F 31.2 °F 17.6 °F 42% 30.10 in 10.0 mi NW 13.8 mph - N/A   Clear
10:55 PM 37.4 °F 27.5 °F 17.6 °F 45% 30.11 in 10.0 mi NW 18.4 mph 21.9 mph N/A   Clear
11:15 PM 37.4 °F 28.2 °F 15.8 °F 41% 30.11 in 10.0 mi NW 16.1 mph 19.6 mph N/A   Clear
11:35 PM 37.4 °F 27.5 °F 15.8 °F 41% 30.11 in 10.0 mi NW 18.4 mph 21.9 mph N/A   Clear
11:55 PM 37.4 °F 29.8 °F 15.8 °F 41% 30.11 in 10.0 mi NW 11.5 mph 20.7 mph N/A   Clear